Location: Côte-Belle
(44.4500°N, 6.3167°E)
Time: 21:31:19
(UTC+00:00)

Daily predictions for brighter satellites

Satellite Brightness Start Highest point End
(mag) Time Altitude Azimuth Time Altitude Azimuth Time Altitude Azimuth
Tsikada Rocket 4.1 16:46:48 10° S 16:52:58 87° W 16:59:09 10° N
USA 81 4.2 16:49:51 10° S 16:55:06 82° W 17:00:25 10° N
BlueWalker 3 3.4 16:53:45 10° NW 16:56:36 21° N 16:59:27 10° ENE
BREEZE-M DEB (TANK) 1.1 16:54:48 10° WSW 16:57:08 72° NNW 16:59:52 10° ENE
Cosmos 1455 1.7 16:56:12 10° N 16:59:26 89° S 17:02:37 10° S
Cosmos 2278 Rocket 2.2 16:54:20 10° NNW 16:59:58 60° ENE 17:05:32 10° SE
Cosmos 2219 Rocket 3.6 16:55:02 10° WSW 17:00:06 34° NW 17:05:13 10° N
SJ-7 4.4 16:56:45 10° SSE 17:00:25 51° ENE 17:04:08 10° N
ARGOS Delta rocket 3.7 16:56:19 10° SSE 17:00:57 66° ENE 17:05:25 10° N
COSMO-SKYMED 1 3.5 16:58:38 10° NE 17:02:22 27° E 17:06:05 10° SSE
ISS -3.7 16:59:29 10° SW 17:02:48 69° SSE 17:06:06 10° ENE
CZ-4C R/B 2.6 16:59:28 10° S 17:03:11 31° ESE 17:07:37 10° NE
CSL-04 DEB 4.2 17:01:02 10° SSE 17:04:53 72° ENE 17:08:41 10° N
Cosmos 2084 Rocket 4.0 17:01:51 10° NW 17:05:51 59° SW 17:09:46 10° SSE
Meteor 1-21 4.2 17:01:54 10° S 17:07:30 86° E 17:13:10 10° NNE
CORIOLIS 4.4 17:04:17 10° S 17:09:41 77° WSW 17:15:10 10° NNW
Cosmos 1763 Rocket 3.6 17:05:32 10° SSW 17:10:45 84° WNW 17:15:57 10° NNE
Spot 4 Rocket 4.0 17:06:07 10° SSE 17:11:15 87° ENE 17:16:24 10° NNW
YAOGAN 1 3.7 17:08:57 10° ESE 17:12:10 21° ENE 17:15:24 10° NNE
ATLAS 5 CENTAUR R/B 2.7 17:11:12 10° SSE 17:13:00 14° ESE 17:14:21 12° E
Cosmos 1733 Rocket 3.1 17:11:19 10° N 17:15:40 57° E 17:20:00 10° SSE
Cosmos 540 Rocket 3.4 17:11:20 10° SSW 17:16:28 86° ESE 17:21:37 10° NNE
Landsat 7 4.2 17:13:49 10° SE 17:18:09 39° ENE 17:22:32 10° N
Cosmos 468 Rocket 3.9 17:15:12 10° SSW 17:20:23 73° ESE 17:25:32 10° NNE
USA 215 4.2 17:16:35 10° NE 17:22:29 37° NNW 17:28:21 10° W
Cosmos 2228 Rocket 3.1 17:19:38 10° S 17:24:07 70° E 17:28:40 10° NNE
Cosmos 2279 Rocket 4.0 17:21:39 10° N 17:27:53 89° W 17:34:04 10° S
NOSS 8 (A) 4.2 17:26:44 10° NNW 17:29:42 66° NE 17:33:16 10° SE
Cosmos 841 Rocket 3.9 17:24:57 10° S 17:29:52 43° ESE 17:34:49 10° NNE
Cosmos 1898 Rocket 3.6 17:25:25 10° NNW 17:30:37 54° ENE 17:35:49 10° SE
PSLV R/B 4.1 17:28:07 10° S 17:32:06 59° W 17:36:09 10° NNW
Dummy Sat-01 4.5 17:29:05 10° S 17:32:45 79° E 17:36:25 10° N
Aureole 1 Rocket 4.3 17:27:09 10° NNW 17:34:52 72° ENE 17:41:38 10° SSE
Cosmos 1703 4.0 17:32:28 10° SSE 17:35:23 25° E 17:36:27 21° ENE
Okean 1-7 3.1 17:33:41 10° S 17:37:49 50° E 17:41:59 10° NNE
SL-16 R/B 3.1 17:33:27 10° SSE 17:38:07 27° ESE 17:40:55 18° ENE
Cosmos 1980 3.7 17:32:47 10° SSW 17:38:25 85° WNW 17:44:06 10° NNE
Cosmos 1953 2.6 17:40:45 10° NNW 17:44:26 63° W 17:48:05 10° S
NOSS 0 Rocket 4.5 17:42:26 10° SW 17:48:28 57° WNW 17:54:32 10° NNE
SKYMED 2 3.5 17:46:11 10° NNE 17:50:34 88° ESE 17:54:54 10° SSW
Cosmos 1092 Rocket 4.4 17:47:16 10° SSE 17:52:48 37° E 17:58:25 10° NNE
Cosmos 1818 4.0 17:48:02 10° NNW 17:53:14 42° NE 17:56:19 22° ESE
ATLAS 2AS CENTAUR R/B 3.0 17:48:19 10° NNW 17:54:49 44° NE 17:59:05 20° ESE
ACS3 Solar Sail 1.8 17:48:32 10° SSE 17:54:52 70° ENE 18:01:14 10° N
COSMOS 2428 4.3 17:50:59 10° WSW 17:55:59 31° NW 18:01:00 10° N
Cosmos 2369 Rocket 3.1 17:51:43 10° N 17:56:18 25° NE 17:56:54 25° ENE
Cosmos 372 Rocket 3.9 17:55:33 10° NNW 18:00:39 87° WSW 18:05:45 10° SSE
DNEPR-1 R/B 4.0 18:00:47 10° NW 18:05:26 62° WSW 18:09:35 10° SSE
BREEZE-M DEB (TANK) 3.7 17:58:01 10° W 18:06:00 47° NNW 18:07:22 32° NE
Cosmos 1908 Rocket 3.4 18:04:25 10° N 18:08:45 66° E 18:13:01 10° SSE
Meteor 2-12 Rocket 4.4 18:04:06 10° S 18:10:04 63° E 18:16:06 10° NNE
Meteor 1-31 Rocket 2.7 18:07:47 10° S 18:11:21 75° WSW 18:14:56 10° NNW
EO 1 Delta rocket 4.1 18:09:49 10° N 18:14:30 69° WNW 18:19:09 10° SSW
Cosmos 2297 4.1 18:14:11 10° NNW 18:19:37 41° ENE 18:20:17 39° ENE
CZ-2C R/B 4.2 18:22:19 21° N 18:22:19 21° N 18:23:35 10° N
Cosmos 1937 Rocket 3.5 18:15:30 10° NNW 18:20:40 79° WSW 18:25:49 10° SSE
Cosmos 2026 Rocket 4.0 18:15:09 10° S 18:21:26 65° E 18:27:44 10° NNE
Cosmos 1932 4.3 18:16:51 10° SSW 18:22:59 71° ESE 18:25:50 34° NE
Cosmos 858 Rocket 4.4 18:20:01 10° NNW 18:25:15 87° ENE 18:30:29 10° SSE
Cosmos 1825 4.3 18:22:57 10° S 18:23:11 12° S 18:23:11 12° S
BREEZE-M DEB (TANK) 3.5 18:12:58 10° WSW 18:27:15 72° NNW 18:28:56 42° NE
Cosmos 1428 Rocket 4.5 18:22:05 10° S 18:28:18 83° W 18:34:30 10° N
Cosmos 1943 Rocket 3.8 18:24:17 10° NW 18:29:24 36° WSW 18:34:27 10° S
RESURS DK-1 4.4 18:26:39 10° NW 18:30:06 28° WSW 18:33:32 10° SSW
Cosmos 2237 Rocket 3.5 18:27:34 10° WSW 18:32:48 37° NW 18:37:58 11° NNE
BlueWalker 3 3.1 18:31:32 10° NW 18:33:53 32° NNW 18:33:53 32° NNW
COSMO-SKYMED 1 4.4 18:34:43 10° N 18:38:30 29° WNW 18:42:16 10° SW
ISS -2.0 18:36:44 10° W 18:39:01 27° NW 18:39:01 27° NW
YAOGAN 1 3.9 18:43:51 10° SSW 18:47:50 38° W 18:51:51 10° NNW
CZ-4C R/B 3.0 18:47:04 10° WSW 18:51:17 37° NW 18:53:04 29° N
ATLAS 5 CENTAUR R/B 3.0 18:52:51 10° WSW 18:54:38 26° W 18:54:38 26° W
Meteor 1-24 Rocket 3.7 18:50:35 10° S 18:56:29 83° E 18:58:08 50° NNE
SPOT 1/Viking Rocket 4.1 18:53:58 10° S 18:59:01 55° W 19:04:05 10° NNW
USA 215 4.3 19:03:32 29° NNE 19:04:26 30° N 19:09:54 10° NW
Meteor 2-5 Rocket 3.7 19:01:22 10° S 19:07:06 85° W 19:07:38 75° N
Cosmos 1656 Rocket 4.0 19:08:42 10° NNW 19:14:07 61° WSW 19:14:50 55° SW
SL-16 R/B 3.0 19:16:27 10° SW 19:21:55 48° WNW 19:22:50 44° NNW
Cosmos 1553 Rocket 4.5 19:19:29 10° N 19:23:51 49° NNW 19:23:51 49° NNW
ACS3 Solar Sail 4.2 19:34:19 10° SW 19:38:57 21° W 19:43:38 10° NW
Cosmos 2369 Rocket 3.3 19:35:12 10° NNW 19:38:45 38° NW 19:38:45 38° NW
ATLAS 2AS CENTAUR R/B 3.5 19:39:22 10° NW 19:45:43 45° WSW 19:46:35 42° SW
